COSMOS 1275 DEB

Satellite information

Favourite Embed

Satellite Type and Status

DEBRISIN ORBIT

Key statistics

Satellite COSMOS 1275 DEB at a glance.

Uptime

16264

Days in orbit

Revolutions

≈ 14.2

Per day

Orbit

LEO

Low Earth Orbit

Inclination

83.1

Latest

Satellite identification and parameters

Extended collection of information and parameters for COSMOS 1275 DEB.

Object identification

Identified? True

Debris? True

Object name: COSMOS 1275 DEB

International designator: 1981-053MN

Object number (NORAD): 27733

Object ID (CCSDS): 27733

Country: COMMONWEALTH OF INDEPENDENT STATES (CIS)

Current information (Y/N): Y

RCS size: SMALL

Orbital parameters

Period: 101.344 minutes

Inclination: 83.1113 deg

SMA: 7200.432 km

Apoapsis: 841.867 km

Periapsis: 802.727 km

RAAN: 329.2938 deg

Eccentricy: 0.0027179

Argument of periapsis: 204.7064 deg

Mean anomaly: 155.2819 deg

Mean motion: 14.20904671 rev/day

Mean motion (dot): 0.00004999 rev/day2

B* drag term: 0.0022946 1/REarth

Two-line elements (TLE)

Creation date: Dec. 12, 2025, 7:26 a.m.

Reference frame: TEME

Reference center: EARTH

Epoch: Dec. 11, 2025, 10:39 p.m. UTC

TLE line 0: 0 COSMOS 1275 DEB

TLE line 1: 1 27733U 81053MN 25345.94397742 .00004999 00000-0 22946-2 0 9999

TLE line 2: 2 27733 83.1113 329.2938 0027179 204.7064 155.2819 14.20904671340772

Live tracking on map

Real-time ground track for satellite COSMOS 1275 DEB.

In-orbit conjunctions

A list of the most updated potential collisions computed for object COSMOS 1275 DEB.

Target Orbit TCA Probability of collision Miss distance Type
THOR BURNER 2 R/B SSO 2025-11-30 16:37:36 0.0001069516 978.0 (m) ROCKET BODY
CZ-6A DEB LEO 2025-05-10 09:37:30 0.0001669018 200.0 (m) DEBRIS
DELTA 1 DEB SSO 2025-01-27 09:05:44 0.000126392 120.0 (m) DEBRIS
FENGYUN 1C DEB SSO 2025-01-05 11:55:21 0.0001352377 115.0 (m) DEBRIS

Associated space launch

Navigation satellite providing location information for the Tsiklon-B navigation system

COSMOS 1275 DEB was lifted into orbit during the mission ‘Kosmos-3M | Parus 27’, on board a Kosmos-3M space rocket.

The launch took place on June 4, 1981, 3:41 p.m. from 132/2.

For more information about the launch, click the button.

Launch to space Kosmos-3M | Parus 27
Kosmos-3M | Parus 27

Agency: N/A

Status: Launch Successful

Launch date: June 4, 1981, 3:41 p.m. UTC

Rocket: Kosmos-3M

Launch pad: 132/2

Location: Plesetsk Cosmodrome, Russian Federation

...

Latest news about this satellite

There are no fresh news available about this satellite. Check back as we update our databases every day.


Newsletter sign-up

Weekly statistics, charts and insights to help you stay on top of the space industry.